Regional Weather Roundup
Issued by NWS

Home | Current Version | Previous Version | Graphics & Text | Print | Product List | Glossary On
Versions: 1 2 3 4 5 6 7 8 9 10 11 12 13 14 15 16 17 18 19 20 21 22 23 24 25 26 27 28 29 30 31 32 33 34 35 36 37 38 39 40 41 42 43 44 45 46 47 48 49 50
000
ASUS43 KFSD 261002
RWRSD

WEATHER ROUNDUP FOR SOUTH DAKOTA
NATIONAL WEATHER SERVICE SIOUX FALLS SD
500 AM CDT TUE JUL 26 2016

NOTE: "FAIR" INDICATES FEW OR NO CLOUDS BELOW 12,000 FEET WITH NO
SIGNIFICANT WEATHER AND/OR OBSTRUCTIONS TO VISIBILITY.


SDZ001>005-009-010-012>017-261100-
NORTHWEST AND NORTH CENTRAL SOUTH DAKOTA

CITY           SKY/WX    TMP DP  RH WIND       PRES   REMARKS
BUFFALO          N/A     65  55  70 NE15      29.91F
FAITH            N/A     71  60  68 S15       29.96S
MOBRIDGE       CLOUDY    76  61  59 SE10      29.92F
$$

SDZ012>016-024>037-041>051-057-063-072>074-261100-
SOUTHWEST AND SOUTH CENTRAL SOUTH DAKOTA

CITY           SKY/WX    TMP DP  RH WIND       PRES   REMARKS
RAPID CTY ARPT PTCLDY    67  60  78 W3        30.00S
PIERRE         CLEAR     74  62  66 S12       29.96S
CUSTER         CLEAR     58  54  86 CALM      30.16F
ELLSWORTH AFB  PTCLDY    70  62  74 CALM      30.01R
PHILIP         CLEAR     74  65  73 S8        29.96F
PINE RIDGE     CLEAR     71  65  81 S16G26    30.01F
WINNER         FAIR      74  60  61 S20       30.02F
$$

SDZ004>011-016>023-039-040-261100-
NORTHEAST SOUTH DAKOTA

CITY           SKY/WX    TMP DP  RH WIND       PRES   REMARKS
ABERDEEN       PTCLDY    65  58  78 N5        29.99R
WATERTOWN      CLEAR     68  63  84 S8        30.02F
BROOKINGS      CLEAR     67  63  87 S9        30.05S
SISSETON         N/A     75  61  61 W20G35    29.93R
$$

SDZ017-020-022-023-036>040-048>070-261100-
SOUTHEAST SOUTH DAKOTA

CITY           SKY/WX    TMP DP  RH WIND       PRES   REMARKS
SIOUX FALLS    CLEAR     70  62  76 SW8       30.06F
HURON          CLEAR     65  60  84 SE8       29.99F
CHAMBERLAIN    CLEAR     73  64  73 S9        30.01F
MITCHELL       CLEAR     64  61  90 S6        30.03S
YANKTON        CLEAR     66  61  82 SE6       30.05F
$$

ABBREVIATIONS USED IN REMARKS
   TC - TEMPERATURE IN CELSIUS
  WCI - WIND CHILL INDEX
   HX - HEAT INDEX
  VSB - VISIBILITY




USA.gov is the U.S. government's official web portal to all federal, state and local government web resources and services.